sat.trackr.live / text

‹ back to catalog

LEMUR-2-VUKASIN

NORAD 66785 · 2025-276DZ

PAYLOAD ACTIVE UNKNOWN

§ Identity

Operator
Country
US
Launch date
2025-11-28
Launch site
AFWTR
Launch vehicle
Mass (kg)
RCS (m²)

Purposes: earth_obs

External: N2YO · Heavens-Above · Gunter

§ Orbital elements

Epoch: 2026-09-18T10:40:03.281088Z

Period
95.93 min
Inclination
97.5031°
Eccentricity
0.0005996
Mean motion
15.01017346 rev/d
Perigee alt
559.6 km
Apogee alt
567.9 km
Semi-major
6,941.9 km
B*
2.9863e-4
RAAN
329.3136°
Arg perigee
127.2229°
Mean anomaly
232.9544°
Rev number
4,413

§ Raw data

LEMUR-2-VUKASIN1 66785U 25276DZ  26261.44448242  .00003758  00000+0  29863-3 0  99962 66785  97.5031 329.3136 0005996 127.2229 232.9544 15.01017346 44139

JSON: /api/v1/satellites/66785 · /tle

For live sub-satellite position, see the globe view (requires WebGL).

§ Visibility from observer

Set your observer location to see the next 7 days of passes ≥ 10°. The values pass through the URL so the page stays shareable.

No JS? Fill the form by hand. The geolocation button needs JavaScript.